Time,TemperatureF,DewpointF,PressureIn,WindDirection,WindDirectionDegrees,WindSpeedMPH,WindSpeedGustMPH,Humidity,HourlyPrecipIn,Conditions,Clouds,dailyrainin,SoftwareType,DateUTC
2013-01-12 00:00:00,61.0,61.0,30.09,SW,225,4.0,16.0,100,0.01,,,0.00,Weather View 32 v70,2013-01-12 05:00:00,
2013-01-12 00:01:00,61.0,61.0,30.09,SSW,202,5.0,16.0,100,0.01,,,0.00,Weather View 32 v70,2013-01-12 05:01:00,
2013-01-12 00:06:00,61.0,61.0,30.09,SW,225,5.0,16.0,100,0.01,,,0.00,Weather View 32 v70,2013-01-12 05:06:00,
2013-01-12 00:11:00,61.0,61.0,30.09,SW,225,9.0,14.0,100,0.01,,,0.00,Weather View 32 v70,2013-01-12 05:11:00,
2013-01-12 00:16:00,61.0,61.0,30.08,SSW,202,6.0,13.0,100,0.01,,,0.00,Weather View 32 v70,2013-01-12 05:16:00,
2013-01-12 00:21:00,60.0,60.0,30.08,SSW,202,7.0,13.0,100,0.01,,,0.00,Weather View 32 v70,2013-01-12 05:21:00,
2013-01-12 00:26:00,60.0,60.0,30.08,South,180,3.0,13.0,100,0.01,,,0.00,Weather View 32 v70,2013-01-12 05:26:00,
2013-01-12 00:31:00,60.0,60.0,30.08,SSW,202,4.0,13.0,100,0.01,,,0.00,Weather View 32 v70,2013-01-12 05:31:00,
2013-01-12 00:36:00,60.0,60.0,30.08,NNE,22,6.0,13.0,100,0.01,,,0.00,Weather View 32 v70,2013-01-12 05:36:00,
2013-01-12 00:42:00,60.0,60.0,30.08,WSW,248,5.0,13.0,100,0.01,,,0.00,Weather View 32 v70,2013-01-12 05:42:00,
2013-01-12 00:47:00,60.0,60.0,30.08,SSW,202,6.0,13.0,100,0.00,,,0.00,Weather View 32 v70,2013-01-12 05:47:00,
2013-01-12 00:52:00,60.0,60.0,30.08,SSE,158,3.0,13.0,100,0.00,,,0.00,Weather View 32 v70,2013-01-12 05:52:00,
2013-01-12 00:57:00,60.0,60.0,30.08,SW,225,7.0,13.0,100,0.00,,,0.00,Weather View 32 v70,2013-01-12 05:57:00,
2013-01-12 01:02:00,60.0,60.0,30.08,SW,225,11.0,14.0,100,0.00,,,0.00,Weather View 32 v70,2013-01-12 06:02:00,
2013-01-12 01:07:00,60.0,60.0,30.08,SSW,202,5.0,14.0,100,0.00,,,0.00,Weather View 32 v70,2013-01-12 06:07:00,
2013-01-12 01:12:00,61.0,61.0,30.07,South,180,6.0,14.0,100,0.00,,,0.00,Weather View 32 v70,2013-01-12 06:12:00,
2013-01-12 01:17:00,61.0,61.0,30.07,ESE,112,4.0,14.0,100,0.00,,,0.00,Weather View 32 v70,2013-01-12 06:17:00,
2013-01-12 01:22:00,61.0,61.0,30.08,ENE,68,3.0,14.0,100,0.00,,,0.00,Weather View 32 v70,2013-01-12 06:22:00,
2013-01-12 01:27:00,61.0,61.0,30.08,SE,135,4.0,14.0,100,0.00,,,0.00,Weather View 32 v70,2013-01-12 06:27:00,
2013-01-12 01:32:00,61.0,61.0,30.07,North,0,1.0,19.0,100,0.00,,,0.00,Weather View 32 v70,2013-01-12 06:32:00,
2013-01-12 01:37:00,61.0,61.0,30.07,SSW,202,5.0,19.0,100,0.00,,,0.00,Weather View 32 v70,2013-01-12 06:37:00,
2013-01-12 01:42:00,61.0,61.0,30.07,ENE,68,0.0,19.0,100,0.00,,,0.00,Weather View 32 v70,2013-01-12 06:42:00,
2013-01-12 01:47:00,61.0,61.0,30.07,SSW,202,5.0,19.0,100,0.00,,,0.00,Weather View 32 v70,2013-01-12 06:47:00,
2013-01-12 01:52:00,61.0,61.0,30.07,SW,225,10.0,19.0,100,0.00,,,0.00,Weather View 32 v70,2013-01-12 06:52:00,
2013-01-12 01:57:00,61.0,61.0,30.07,SW,225,8.0,19.0,100,0.00,,,0.00,Weather View 32 v70,2013-01-12 06:57:00,
2013-01-12 02:02:00,61.0,61.0,30.07,South,180,6.0,19.0,100,0.00,,,0.00,Weather View 32 v70,2013-01-12 07:02:00,
2013-01-12 02:07:00,61.0,61.0,30.07,SSW,202,7.0,19.0,100,0.00,,,0.00,Weather View 32 v70,2013-01-12 07:07:00,
2013-01-12 02:12:00,61.0,61.0,30.07,WSW,248,4.0,19.0,100,0.00,,,0.00,Weather View 32 v70,2013-01-12 07:12:00,
2013-01-12 02:17:00,61.0,61.0,30.07,SW,225,8.0,23.0,100,0.00,,,0.00,Weather View 32 v70,2013-01-12 07:17:00,
2013-01-12 02:22:00,61.0,61.0,30.07,SSW,202,4.0,23.0,100,0.00,,,0.00,Weather View 32 v70,2013-01-12 07:22:00,
2013-01-12 02:27:00,61.0,61.0,30.07,SSW,202,5.0,23.0,100,0.00,,,0.00,Weather View 32 v70,2013-01-12 07:27:00,
2013-01-12 02:32:00,61.0,61.0,30.07,NNW,338,5.0,23.0,100,0.00,,,0.00,Weather View 32 v70,2013-01-12 07:32:00,
2013-01-12 02:37:00,61.0,61.0,30.07,SSW,202,7.0,23.0,100,0.00,,,0.00,Weather View 32 v70,2013-01-12 07:37:00,
2013-01-12 02:42:00,61.0,61.0,30.07,SSW,202,14.0,23.0,100,0.00,,,0.00,Weather View 32 v70,2013-01-12 07:42:00,
2013-01-12 02:47:00,62.0,62.0,30.07,SSW,202,11.0,23.0,100,0.00,,,0.00,Weather View 32 v70,2013-01-12 07:47:00,
2013-01-12 02:52:00,62.0,62.0,30.07,WSW,248,10.0,23.0,100,0.00,,,0.00,Weather View 32 v70,2013-01-12 07:52:00,
2013-01-12 02:57:00,62.0,62.0,30.07,East,90,3.0,23.0,100,0.00,,,0.00,Weather View 32 v70,2013-01-12 07:57:00,
2013-01-12 03:02:00,62.0,62.0,30.07,SW,225,10.0,26.0,100,0.00,,,0.00,Weather View 32 v70,2013-01-12 08:02:00,
2013-01-12 03:07:00,62.0,62.0,30.08,SSW,202,5.0,26.0,100,0.00,,,0.00,Weather View 32 v70,2013-01-12 08:07:00,
2013-01-12 03:13:00,62.0,62.0,30.07,NW,315,6.0,26.0,100,0.00,,,0.00,Weather View 32 v70,2013-01-12 08:13:00,
2013-01-12 03:18:00,63.0,63.0,30.07,SSW,202,7.0,26.0,100,0.00,,,0.00,Weather View 32 v70,2013-01-12 08:18:00,
2013-01-12 03:23:00,62.0,62.0,30.07,South,180,3.0,26.0,100,0.00,,,0.00,Weather View 32 v70,2013-01-12 08:23:00,
2013-01-12 03:28:00,62.0,62.0,30.06,WSW,248,4.0,26.0,100,0.00,,,0.00,Weather View 32 v70,2013-01-12 08:28:00,
2013-01-12 03:33:00,62.0,62.0,30.06,SSW,202,13.0,26.0,100,0.00,,,0.00,Weather View 32 v70,2013-01-12 08:33:00,
2013-01-12 03:38:00,62.0,62.0,30.06,SW,225,12.0,26.0,100,0.00,,,0.00,Weather View 32 v70,2013-01-12 08:38:00,
2013-01-12 03:43:00,62.0,62.0,30.05,West,270,6.0,26.0,100,0.00,,,0.00,Weather View 32 v70,2013-01-12 08:43:00,
2013-01-12 03:48:00,62.0,62.0,30.05,SSE,158,5.0,26.0,100,0.00,,,0.00,Weather View 32 v70,2013-01-12 08:48:00,
2013-01-12 03:53:00,62.0,62.0,30.05,SSW,202,13.0,26.0,100,0.00,,,0.00,Weather View 32 v70,2013-01-12 08:53:00,
2013-01-12 03:58:00,62.0,62.0,30.05,SSW,202,11.0,26.0,100,0.00,,,0.00,Weather View 32 v70,2013-01-12 08:58:00,
2013-01-12 04:03:00,62.0,62.0,30.05,South,180,10.0,25.0,100,0.00,,,0.00,Weather View 32 v70,2013-01-12 09:03:00,
2013-01-12 04:08:00,62.0,62.0,30.05,NNE,22,2.0,25.0,100,0.00,,,0.00,Weather View 32 v70,2013-01-12 09:08:00,
2013-01-12 04:13:00,62.0,62.0,30.06,SSE,158,5.0,25.0,100,0.00,,,0.00,Weather View 32 v70,2013-01-12 09:13:00,
2013-01-12 04:18:00,62.0,62.0,30.05,SW,225,9.0,25.0,100,0.00,,,0.00,Weather View 32 v70,2013-01-12 09:18:00,
2013-01-12 04:23:00,62.0,62.0,30.06,SW,225,6.0,25.0,100,0.00,,,0.00,Weather View 32 v70,2013-01-12 09:23:00,
2013-01-12 04:28:00,62.0,62.0,30.06,SSW,202,2.0,25.0,100,0.00,,,0.00,Weather View 32 v70,2013-01-12 09:28:00,
2013-01-12 04:33:00,62.0,62.0,30.06,SSW,202,3.0,25.0,100,0.00,,,0.00,Weather View 32 v70,2013-01-12 09:33:00,
2013-01-12 04:38:00,62.0,62.0,30.06,South,180,5.0,25.0,100,0.00,,,0.00,Weather View 32 v70,2013-01-12 09:38:00,
2013-01-12 04:43:00,62.0,62.0,30.06,South,180,5.0,25.0,100,0.00,,,0.00,Weather View 32 v70,2013-01-12 09:43:00,
2013-01-12 04:48:00,62.0,62.0,30.05,SSW,202,4.0,25.0,100,0.00,,,0.00,Weather View 32 v70,2013-01-12 09:48:00,
2013-01-12 04:53:00,62.0,62.0,30.05,WNW,292,3.0,21.0,100,0.00,,,0.00,Weather View 32 v70,2013-01-12 09:53:00,
2013-01-12 04:58:00,62.0,62.0,30.05,SW,225,9.0,18.0,100,0.00,,,0.00,Weather View 32 v70,2013-01-12 09:58:00,
2013-01-12 05:03:00,63.0,63.0,30.05,WSW,248,5.0,16.0,100,0.00,,,0.00,Weather View 32 v70,2013-01-12 10:03:00,
2013-01-12 05:08:00,63.0,63.0,30.05,SW,225,2.0,14.0,100,0.00,,,0.00,Weather View 32 v70,2013-01-12 10:08:00,
2013-01-12 05:13:00,63.0,63.0,30.05,West,270,8.0,14.0,100,0.00,,,0.00,Weather View 32 v70,2013-01-12 10:13:00,
2013-01-12 05:18:00,63.0,63.0,30.06,West,270,3.0,14.0,100,0.00,,,0.00,Weather View 32 v70,2013-01-12 10:18:00,
2013-01-12 05:23:00,64.0,64.0,30.06,West,270,2.0,13.0,100,0.00,,,0.00,Weather View 32 v70,2013-01-12 10:23:00,
2013-01-12 05:28:00,64.0,64.0,30.05,WNW,292,1.0,11.0,100,0.00,,,0.00,Weather View 32 v70,2013-01-12 10:28:00,
2013-01-12 05:33:00,64.0,64.0,30.05,NE,45,0.0,11.0,100,0.00,,,0.00,Weather View 32 v70,2013-01-12 10:33:00,
2013-01-12 05:38:00,63.0,63.0,30.05,ENE,68,1.0,11.0,100,0.00,,,0.00,Weather View 32 v70,2013-01-12 10:38:00,
2013-01-12 05:43:00,63.0,63.0,30.05,WNW,292,1.0,11.0,100,0.00,,,0.00,Weather View 32 v70,2013-01-12 10:43:00,
2013-01-12 05:48:00,63.0,63.0,30.05,ENE,68,1.0,9.0,100,0.00,,,0.00,Weather View 32 v70,2013-01-12 10:48:00,
2013-01-12 05:53:00,63.0,63.0,30.05,ENE,68,4.0,9.0,100,0.00,,,0.00,Weather View 32 v70,2013-01-12 10:53:00,
2013-01-12 05:58:00,63.0,63.0,30.06,ENE,68,1.0,9.0,100,0.00,,,0.00,Weather View 32 v70,2013-01-12 10:58:00,
2013-01-12 06:03:00,63.0,63.0,30.06,ENE,68,2.0,9.0,100,0.00,,,0.00,Weather View 32 v70,2013-01-12 11:03:00,
2013-01-12 06:08:00,63.0,63.0,30.06,SE,135,0.0,9.0,100,0.00,,,0.00,Weather View 32 v70,2013-01-12 11:08:00,
2013-01-12 06:14:00,63.0,63.0,30.06,NE,45,0.0,9.0,100,0.00,,,0.00,Weather View 32 v70,2013-01-12 11:14:00,
2013-01-12 06:19:00,63.0,63.0,30.06,ENE,68,0.0,8.0,100,0.00,,,0.00,Weather View 32 v70,2013-01-12 11:19:00,
2013-01-12 06:24:00,62.0,62.0,30.06,ESE,112,0.0,8.0,100,0.00,,,0.00,Weather View 32 v70,2013-01-12 11:24:00,
2013-01-12 06:29:00,62.0,62.0,30.06,ENE,68,0.0,4.0,100,0.00,,,0.00,Weather View 32 v70,2013-01-12 11:29:00,
2013-01-12 06:34:00,62.0,62.0,30.06,NNE,22,2.0,4.0,100,0.00,,,0.00,Weather View 32 v70,2013-01-12 11:34:00,
2013-01-12 06:39:00,62.0,62.0,30.06,ENE,68,0.0,4.0,100,0.00,,,0.00,Weather View 32 v70,2013-01-12 11:39:00,
2013-01-12 06:44:00,62.0,62.0,30.06,North,0,0.0,4.0,100,0.00,,,0.00,Weather View 32 v70,2013-01-12 11:44:00,
2013-01-12 06:49:00,62.0,62.0,30.06,North,0,1.0,4.0,100,0.00,,,0.00,Weather View 32 v70,2013-01-12 11:49:00,
2013-01-12 06:54:00,62.0,62.0,30.07,SW,225,1.0,5.0,100,0.00,,,0.00,Weather View 32 v70,2013-01-12 11:54:00,
2013-01-12 06:59:00,63.0,63.0,30.06,SSW,202,4.0,8.0,100,0.00,,,0.00,Weather View 32 v70,2013-01-12 11:59:00,
2013-01-12 07:04:00,63.0,63.0,30.07,SW,225,4.0,10.0,100,0.00,,,0.00,Weather View 32 v70,2013-01-12 12:04:00,
2013-01-12 07:09:00,63.0,63.0,30.07,SSW,202,5.0,10.0,100,0.00,,,0.00,Weather View 32 v70,2013-01-12 12:09:00,
2013-01-12 07:14:00,64.0,63.7,30.07,SW,225,3.0,10.0,99,0.00,,,0.00,Weather View 32 v70,2013-01-12 12:14:00,
2013-01-12 07:19:00,64.0,63.4,30.07,WSW,248,3.0,10.0,98,0.00,,,0.00,Weather View 32 v70,2013-01-12 12:19:00,
2013-01-12 07:24:00,64.0,63.1,30.07,WSW,248,3.0,10.0,97,0.00,,,0.00,Weather View 32 v70,2013-01-12 12:24:00,
2013-01-12 07:29:00,64.0,63.1,30.07,WNW,292,2.0,10.0,97,0.00,,,0.00,Weather View 32 v70,2013-01-12 12:29:00,
2013-01-12 07:34:00,64.0,62.8,30.07,East,90,1.0,10.0,96,0.00,,,0.00,Weather View 32 v70,2013-01-12 12:34:00,
2013-01-12 07:39:00,64.0,63.1,30.08,ENE,68,2.0,10.0,97,0.00,,,0.00,Weather View 32 v70,2013-01-12 12:39:00,
2013-01-12 07:44:00,64.0,63.1,30.08,ENE,68,2.0,10.0,97,0.00,,,0.00,Weather View 32 v70,2013-01-12 12:44:00,
2013-01-12 07:49:00,64.0,63.1,30.08,ESE,112,0.0,10.0,97,0.00,,,0.00,Weather View 32 v70,2013-01-12 12:49:00,
2013-01-12 07:54:00,64.0,62.8,30.08,North,0,2.0,10.0,96,0.00,,,0.00,Weather View 32 v70,2013-01-12 12:54:00,
2013-01-12 07:59:00,64.0,62.8,30.08,NE,45,0.0,10.0,96,0.00,,,0.00,Weather View 32 v70,2013-01-12 12:59:00,
2013-01-12 08:04:00,64.0,62.8,30.08,SSE,158,1.0,7.0,96,0.00,,,0.00,Weather View 32 v70,2013-01-12 13:04:00,
2013-01-12 08:09:00,64.0,62.8,30.08,East,90,1.0,7.0,96,0.00,,,0.00,Weather View 32 v70,2013-01-12 13:09:00,
2013-01-12 08:14:00,64.0,62.8,30.09,WSW,248,1.0,6.0,96,0.00,,,0.00,Weather View 32 v70,2013-01-12 13:14:00,
2013-01-12 08:19:00,64.0,63.1,30.09,WNW,292,1.0,6.0,97,0.00,,,0.00,Weather View 32 v70,2013-01-12 13:19:00,
2013-01-12 08:24:00,63.0,61.8,30.09,SSW,202,1.0,5.0,96,0.00,,,0.00,Weather View 32 v70,2013-01-12 13:24:00,
2013-01-12 08:29:00,64.0,62.5,30.09,SW,225,2.0,5.0,95,0.00,,,0.00,Weather View 32 v70,2013-01-12 13:29:00,
2013-01-12 08:34:00,64.0,62.5,30.09,SSW,202,1.0,5.0,95,0.00,,,0.00,Weather View 32 v70,2013-01-12 13:34:00,
2013-01-12 08:39:00,64.0,62.2,30.09,WSW,248,1.0,5.0,94,0.00,,,0.00,Weather View 32 v70,2013-01-12 13:39:00,
2013-01-12 08:45:00,65.0,62.9,30.09,SW,225,0.0,8.0,93,0.00,,,0.00,Weather View 32 v70,2013-01-12 13:45:00,
2013-01-12 08:50:00,65.0,62.9,30.09,WSW,248,2.0,8.0,93,0.00,,,0.00,Weather View 32 v70,2013-01-12 13:50:00,
2013-01-12 08:55:00,65.0,62.6,30.09,West,270,2.0,8.0,92,0.00,,,0.00,Weather View 32 v70,2013-01-12 13:55:00,
2013-01-12 09:00:00,65.0,62.6,30.09,West,270,1.0,8.0,92,0.00,,,0.00,Weather View 32 v70,2013-01-12 14:00:00,
2013-01-12 09:05:00,65.0,62.6,30.09,NW,315,1.0,8.0,92,0.00,,,0.00,Weather View 32 v70,2013-01-12 14:05:00,
2013-01-12 09:10:00,65.0,62.3,30.09,WSW,248,3.0,8.0,91,0.00,,,0.00,Weather View 32 v70,2013-01-12 14:10:00,
2013-01-12 09:15:00,65.0,62.3,30.10,WSW,248,5.0,8.0,91,0.00,,,0.00,Weather View 32 v70,2013-01-12 14:15:00,
2013-01-12 09:20:00,65.0,62.3,30.10,WSW,248,5.0,8.0,91,0.00,,,0.00,Weather View 32 v70,2013-01-12 14:20:00,
2013-01-12 09:25:00,65.0,62.3,30.10,WSW,248,7.0,8.0,91,0.01,,,0.01,Weather View 32 v70,2013-01-12 14:25:00,
2013-01-12 09:30:00,65.0,62.3,30.10,SSW,202,6.0,11.0,91,0.01,,,0.01,Weather View 32 v70,2013-01-12 14:30:00,
2013-01-12 09:35:00,66.0,63.0,30.10,WSW,248,8.0,11.0,90,0.01,,,0.01,Weather View 32 v70,2013-01-12 14:35:00,
2013-01-12 09:40:00,66.0,63.0,30.10,WSW,248,6.0,11.0,90,0.01,,,0.01,Weather View 32 v70,2013-01-12 14:40:00,
2013-01-12 09:45:00,66.0,62.7,30.10,WSW,248,8.0,11.0,89,0.01,,,0.01,Weather View 32 v70,2013-01-12 14:45:00,
2013-01-12 09:50:00,67.0,63.6,30.10,WSW,248,9.0,13.0,89,0.01,,,0.01,Weather View 32 v70,2013-01-12 14:50:00,
2013-01-12 09:55:00,67.0,63.3,30.10,WNW,292,4.0,13.0,88,0.01,,,0.01,Weather View 32 v70,2013-01-12 14:55:00,
2013-01-12 10:00:00,67.0,63.0,30.11,West,270,8.0,13.0,87,0.01,,,0.01,Weather View 32 v70,2013-01-12 15:00:00,
2013-01-12 10:05:00,67.0,63.0,30.11,West,270,8.0,13.0,87,0.01,,,0.01,Weather View 32 v70,2013-01-12 15:05:00,
2013-01-12 10:10:00,67.0,62.7,30.11,West,270,9.0,13.0,86,0.01,,,0.01,Weather View 32 v70,2013-01-12 15:10:00,
2013-01-12 10:15:00,68.0,63.3,30.11,West,270,8.0,13.0,85,0.01,,,0.01,Weather View 32 v70,2013-01-12 15:15:00,
2013-01-12 10:20:00,68.0,64.0,30.11,SW,225,6.0,13.0,87,0.01,,,0.01,Weather View 32 v70,2013-01-12 15:20:00,
2013-01-12 10:25:00,68.0,63.3,30.11,WSW,248,6.0,13.0,85,0.00,,,0.01,Weather View 32 v70,2013-01-12 15:25:00,
2013-01-12 10:30:00,68.0,63.6,30.11,WSW,248,6.0,13.0,86,0.00,,,0.01,Weather View 32 v70,2013-01-12 15:30:00,
2013-01-12 10:35:00,68.0,63.3,30.10,WSW,248,9.0,13.0,85,0.00,,,0.01,Weather View 32 v70,2013-01-12 15:35:00,
2013-01-12 10:40:00,68.0,63.3,30.10,WSW,248,5.0,13.0,85,0.00,,,0.01,Weather View 32 v70,2013-01-12 15:40:00,
2013-01-12 10:45:00,68.0,63.6,30.10,WSW,248,5.0,13.0,86,0.00,,,0.01,Weather View 32 v70,2013-01-12 15:45:00,
2013-01-12 10:50:00,68.0,63.6,30.10,SW,225,4.0,13.0,86,0.00,,,0.01,Weather View 32 v70,2013-01-12 15:50:00,
2013-01-12 10:55:00,68.0,64.0,30.09,WSW,248,6.0,13.0,87,0.00,,,0.01,Weather View 32 v70,2013-01-12 15:55:00,
2013-01-12 11:00:00,68.0,63.0,30.10,SW,225,3.0,11.0,84,0.00,,,0.01,Weather View 32 v70,2013-01-12 16:00:00,
2013-01-12 11:06:00,69.0,64.6,30.10,WNW,292,3.0,11.0,86,0.00,,,0.01,Weather View 32 v70,2013-01-12 16:06:00,
2013-01-12 11:11:00,69.0,65.0,30.10,NW,315,7.0,11.0,87,0.00,,,0.01,Weather View 32 v70,2013-01-12 16:11:00,
2013-01-12 11:16:00,70.0,65.6,30.10,West,270,3.0,11.0,86,0.00,,,0.01,Weather View 32 v70,2013-01-12 16:16:00,
2013-01-12 11:21:00,71.0,66.9,30.09,NNE,22,3.0,11.0,87,0.00,,,0.01,Weather View 32 v70,2013-01-12 16:21:00,
2013-01-12 11:26:00,71.0,66.6,30.09,North,0,3.0,11.0,86,0.00,,,0.01,Weather View 32 v70,2013-01-12 16:26:00,
2013-01-12 11:31:00,72.0,67.2,30.09,North,0,3.0,11.0,85,0.00,,,0.01,Weather View 32 v70,2013-01-12 16:31:00,
2013-01-12 11:36:00,74.0,69.2,30.08,NE,45,3.0,11.0,85,0.00,,,0.01,Weather View 32 v70,2013-01-12 16:36:00,
2013-01-12 11:41:00,74.0,68.5,30.08,North,0,1.0,8.0,83,0.00,,,0.01,Weather View 32 v70,2013-01-12 16:41:00,
2013-01-12 11:46:00,71.0,65.2,30.08,East,90,1.0,8.0,82,0.00,,,0.01,Weather View 32 v70,2013-01-12 16:46:00,
2013-01-12 11:51:00,71.0,65.2,30.08,ENE,68,3.0,8.0,82,0.00,,,0.01,Weather View 32 v70,2013-01-12 16:51:00,
2013-01-12 11:56:00,71.0,65.9,30.08,NNE,22,3.0,8.0,84,0.00,,,0.01,Weather View 32 v70,2013-01-12 16:56:00,
2013-01-12 12:01:00,71.0,66.2,30.08,NE,45,0.0,8.0,85,0.00,,,0.01,Weather View 32 v70,2013-01-12 17:01:00,
2013-01-12 12:06:00,71.0,65.9,30.07,ENE,68,1.0,8.0,84,0.00,,,0.01,Weather View 32 v70,2013-01-12 17:06:00,
2013-01-12 12:11:00,71.0,66.9,30.07,ENE,68,2.0,8.0,87,0.00,,,0.01,Weather View 32 v70,2013-01-12 17:11:00,
2013-01-12 12:16:00,71.0,66.2,30.07,NE,45,3.0,6.0,85,0.00,,,0.01,Weather View 32 v70,2013-01-12 17:16:00,
2013-01-12 12:21:00,71.0,65.9,30.07,North,0,1.0,6.0,84,0.00,,,0.01,Weather View 32 v70,2013-01-12 17:21:00,
2013-01-12 12:26:00,71.0,66.2,30.07,NE,45,3.0,6.0,85,0.00,,,0.01,Weather View 32 v70,2013-01-12 17:26:00,
2013-01-12 12:31:00,71.0,66.2,30.07,NNE,22,2.0,6.0,85,0.00,,,0.01,Weather View 32 v70,2013-01-12 17:31:00,
2013-01-12 12:36:00,71.0,66.2,30.06,ESE,112,2.0,6.0,85,0.00,,,0.01,Weather View 32 v70,2013-01-12 17:36:00,
2013-01-12 12:42:00,71.0,66.2,30.06,NNE,22,3.0,6.0,85,0.00,,,0.01,Weather View 32 v70,2013-01-12 17:42:00,
2013-01-12 12:47:00,71.0,65.6,30.06,NE,45,3.0,7.0,83,0.00,,,0.01,Weather View 32 v70,2013-01-12 17:47:00,
2013-01-12 12:52:00,71.0,65.9,30.06,East,90,0.0,7.0,84,0.00,,,0.01,Weather View 32 v70,2013-01-12 17:52:00,
2013-01-12 12:57:00,72.0,67.2,30.06,NE,45,0.0,7.0,85,0.00,,,0.01,Weather View 32 v70,2013-01-12 17:57:00,
2013-01-12 13:02:00,72.0,67.6,30.06,ESE,112,1.0,7.0,86,0.00,,,0.01,Weather View 32 v70,2013-01-12 18:02:00,
2013-01-12 13:07:00,72.0,67.2,30.06,SSE,158,3.0,10.0,85,0.00,,,0.01,Weather View 32 v70,2013-01-12 18:07:00,
2013-01-12 13:12:00,71.0,66.6,30.06,South,180,3.0,10.0,86,0.00,,,0.01,Weather View 32 v70,2013-01-12 18:12:00,
2013-01-12 13:17:00,70.0,65.6,30.06,ESE,112,2.0,10.0,86,0.00,,,0.01,Weather View 32 v70,2013-01-12 18:17:00,
2013-01-12 13:22:00,70.0,66.6,30.06,NE,45,3.0,10.0,89,0.00,,,0.01,Weather View 32 v70,2013-01-12 18:22:00,
2013-01-12 13:27:00,69.0,65.9,30.06,SW,225,8.0,10.0,90,0.00,,,0.01,Weather View 32 v70,2013-01-12 18:27:00,
2013-01-12 13:32:00,69.0,66.3,30.06,South,180,1.0,10.0,91,0.00,,,0.01,Weather View 32 v70,2013-01-12 18:32:00,
2013-01-12 13:37:00,69.0,66.6,30.06,SSW,202,2.0,10.0,92,0.00,,,0.01,Weather View 32 v70,2013-01-12 18:37:00,
2013-01-12 13:42:00,68.0,65.6,30.06,SSW,202,7.0,10.0,92,0.00,,,0.01,Weather View 32 v70,2013-01-12 18:42:00,
2013-01-12 13:47:00,68.0,65.6,30.06,NW,315,3.0,10.0,92,0.00,,,0.01,Weather View 32 v70,2013-01-12 18:47:00,
2013-01-12 13:52:00,68.0,65.9,30.06,SW,225,4.0,10.0,93,0.00,,,0.01,Weather View 32 v70,2013-01-12 18:52:00,
2013-01-12 13:57:00,68.0,65.9,30.06,NW,315,2.0,10.0,93,0.00,,,0.01,Weather View 32 v70,2013-01-12 18:57:00,
2013-01-12 14:02:00,68.0,65.9,30.06,SW,225,7.0,10.0,93,0.00,,,0.01,Weather View 32 v70,2013-01-12 19:02:00,
2013-01-12 14:07:00,68.0,65.9,30.06,SSW,202,7.0,10.0,93,0.00,,,0.01,Weather View 32 v70,2013-01-12 19:07:00,
2013-01-12 14:12:00,69.0,66.9,30.06,SSE,158,3.0,10.0,93,0.00,,,0.01,Weather View 32 v70,2013-01-12 19:12:00,
2013-01-12 14:17:00,68.0,65.9,30.05,NW,315,1.0,11.0,93,0.00,,,0.01,Weather View 32 v70,2013-01-12 19:17:00,
2013-01-12 14:22:00,68.0,65.9,30.05,NW,315,2.0,11.0,93,0.00,,,0.01,Weather View 32 v70,2013-01-12 19:22:00,
2013-01-12 14:27:00,68.0,65.9,30.05,SSW,202,1.0,11.0,93,0.00,,,0.01,Weather View 32 v70,2013-01-12 19:27:00,
2013-01-12 14:32:00,68.0,65.9,30.05,ENE,68,3.0,11.0,93,0.00,,,0.01,Weather View 32 v70,2013-01-12 19:32:00,
2013-01-12 14:37:00,69.0,67.2,30.05,ESE,112,3.0,11.0,94,0.00,,,0.01,Weather View 32 v70,2013-01-12 19:37:00,
2013-01-12 14:42:00,69.0,66.9,30.05,West,270,5.0,11.0,93,0.00,,,0.01,Weather View 32 v70,2013-01-12 19:42:00,
2013-01-12 14:47:00,69.0,66.9,30.06,WSW,248,6.0,14.0,93,0.00,,,0.01,Weather View 32 v70,2013-01-12 19:47:00,
2013-01-12 14:52:00,69.0,66.6,30.05,SSW,202,7.0,14.0,92,0.00,,,0.01,Weather View 32 v70,2013-01-12 19:52:00,
2013-01-12 14:57:00,70.0,67.2,30.05,SSW,202,1.0,14.0,91,0.00,,,0.01,Weather View 32 v70,2013-01-12 19:57:00,
2013-01-12 15:02:00,70.0,67.2,30.05,SE,135,3.0,14.0,91,0.00,,,0.01,Weather View 32 v70,2013-01-12 20:02:00,
2013-01-12 15:07:00,70.0,67.2,30.05,ESE,112,3.0,14.0,91,0.00,,,0.01,Weather View 32 v70,2013-01-12 20:07:00,
2013-01-12 15:12:00,69.0,66.3,30.06,SW,225,4.0,14.0,91,0.00,,,0.01,Weather View 32 v70,2013-01-12 20:12:00,
2013-01-12 15:17:00,69.0,66.3,30.06,WSW,248,3.0,14.0,91,0.00,,,0.01,Weather View 32 v70,2013-01-12 20:17:00,
2013-01-12 15:22:00,69.0,66.3,30.06,SW,225,3.0,14.0,91,0.00,,,0.01,Weather View 32 v70,2013-01-12 20:22:00,
2013-01-12 15:27:00,68.0,65.6,30.06,ESE,112,1.0,14.0,92,0.00,,,0.01,Weather View 32 v70,2013-01-12 20:27:00,
2013-01-12 15:32:00,68.0,65.6,30.06,SSW,202,4.0,14.0,92,0.00,,,0.01,Weather View 32 v70,2013-01-12 20:32:00,
2013-01-12 15:37:00,68.0,65.9,30.06,West,270,2.0,14.0,93,0.00,,,0.01,Weather View 32 v70,2013-01-12 20:37:00,
2013-01-12 15:42:00,69.0,66.9,30.06,SE,135,6.0,14.0,93,0.00,,,0.01,Weather View 32 v70,2013-01-12 20:42:00,
2013-01-12 15:47:00,69.0,66.9,30.06,WNW,292,3.0,11.0,93,0.00,,,0.01,Weather View 32 v70,2013-01-12 20:47:00,
2013-01-12 15:52:00,69.0,66.6,30.06,NW,315,2.0,13.0,92,0.00,,,0.01,Weather View 32 v70,2013-01-12 20:52:00,
2013-01-12 15:57:00,69.0,66.6,30.06,NW,315,3.0,13.0,92,0.00,,,0.01,Weather View 32 v70,2013-01-12 20:57:00,
2013-01-12 16:02:00,68.0,65.6,30.06,SSW,202,0.0,13.0,92,0.00,,,0.01,Weather View 32 v70,2013-01-12 21:02:00,
2013-01-12 16:07:00,69.0,66.6,30.05,West,270,3.0,13.0,92,0.00,,,0.01,Weather View 32 v70,2013-01-12 21:07:00,
2013-01-12 16:12:00,69.0,66.6,30.05,SE,135,2.0,13.0,92,0.00,,,0.01,Weather View 32 v70,2013-01-12 21:12:00,
2013-01-12 16:17:00,68.0,65.3,30.05,ENE,68,0.0,13.0,91,0.00,,,0.01,Weather View 32 v70,2013-01-12 21:17:00,
2013-01-12 16:22:00,68.0,65.3,30.06,West,270,4.0,13.0,91,0.00,,,0.01,Weather View 32 v70,2013-01-12 21:22:00,
2013-01-12 16:27:00,76.0,73.5,30.06,ENE,68,2.0,13.0,92,0.00,,,0.01,Weather View 32 v70,2013-01-12 21:27:00,
2013-01-12 16:32:00,71.0,68.5,30.06,SW,225,3.0,13.0,92,0.00,,,0.01,Weather View 32 v70,2013-01-12 21:32:00,
2013-01-12 16:37:00,69.0,66.6,30.06,NW,315,1.0,13.0,92,0.00,,,0.01,Weather View 32 v70,2013-01-12 21:37:00,
2013-01-12 16:42:00,68.0,65.6,30.06,SSW,202,6.0,13.0,92,0.00,,,0.01,Weather View 32 v70,2013-01-12 21:42:00,
2013-01-12 16:47:00,66.0,63.6,30.06,NNE,22,3.0,13.0,92,0.00,,,0.01,Weather View 32 v70,2013-01-12 21:47:00,
2013-01-12 16:52:00,67.0,64.9,30.06,West,270,3.0,12.0,93,0.00,,,0.01,Weather View 32 v70,2013-01-12 21:52:00,
2013-01-12 16:57:00,66.0,63.9,30.06,East,90,0.0,12.0,93,0.00,,,0.01,Weather View 32 v70,2013-01-12 21:57:00,
2013-01-12 17:02:00,66.0,63.9,30.06,SSW,202,1.0,12.0,93,0.00,,,0.01,Weather View 32 v70,2013-01-12 22:02:00,
2013-01-12 17:07:00,66.0,64.2,30.05,SE,135,3.0,12.0,94,0.00,,,0.01,Weather View 32 v70,2013-01-12 22:07:00,
2013-01-12 17:12:00,66.0,64.2,30.06,SW,225,1.0,12.0,94,0.00,,,0.01,Weather View 32 v70,2013-01-12 22:12:00,
2013-01-12 17:17:00,65.0,63.2,30.05,West,270,6.0,12.0,94,0.00,,,0.01,Weather View 32 v70,2013-01-12 22:17:00,
2013-01-12 17:22:00,65.0,63.5,30.06,NE,45,1.0,12.0,95,0.00,,,0.01,Weather View 32 v70,2013-01-12 22:22:00,
2013-01-12 17:27:00,64.0,62.5,30.05,SSE,158,1.0,11.0,95,0.00,,,0.01,Weather View 32 v70,2013-01-12 22:27:00,
2013-01-12 17:32:00,64.0,62.8,30.05,SW,225,5.0,11.0,96,0.00,,,0.01,Weather View 32 v70,2013-01-12 22:32:00,
2013-01-12 17:37:00,64.0,62.8,30.05,ENE,68,2.0,11.0,96,0.00,,,0.01,Weather View 32 v70,2013-01-12 22:37:00,
2013-01-12 17:42:00,64.0,63.1,30.05,ESE,112,1.0,12.0,97,0.00,,,0.01,Weather View 32 v70,2013-01-12 22:42:00,
2013-01-12 17:47:00,63.0,62.1,30.05,South,180,4.0,12.0,97,0.00,,,0.01,Weather View 32 v70,2013-01-12 22:47:00,
2013-01-12 17:52:00,63.0,62.1,30.05,SSW,202,3.0,12.0,97,0.00,,,0.01,Weather View 32 v70,2013-01-12 22:52:00,
2013-01-12 17:57:00,63.0,62.4,30.05,South,180,5.0,12.0,98,0.00,,,0.01,Weather View 32 v70,2013-01-12 22:57:00,
2013-01-12 18:02:00,63.0,62.4,30.05,SW,225,3.0,12.0,98,0.00,,,0.01,Weather View 32 v70,2013-01-12 23:02:00,
2013-01-12 18:07:00,63.0,62.4,30.05,SSW,202,3.0,12.0,98,0.00,,,0.01,Weather View 32 v70,2013-01-12 23:07:00,
2013-01-12 18:12:00,62.0,61.7,30.05,WNW,292,3.0,12.0,99,0.00,,,0.01,Weather View 32 v70,2013-01-12 23:12:00,
2013-01-12 18:17:00,62.0,61.7,30.06,WSW,248,4.0,12.0,99,0.00,,,0.01,Weather View 32 v70,2013-01-12 23:17:00,
2013-01-12 18:22:00,62.0,61.7,30.06,West,270,3.0,12.0,99,0.00,,,0.01,Weather View 32 v70,2013-01-12 23:22:00,
2013-01-12 18:28:00,62.0,62.0,30.06,West,270,5.0,12.0,100,0.00,,,0.01,Weather View 32 v70,2013-01-12 23:28:00,
2013-01-12 18:33:00,62.0,62.0,30.05,SW,225,6.0,12.0,100,0.00,,,0.01,Weather View 32 v70,2013-01-12 23:33:00,
2013-01-12 18:38:00,63.0,63.0,30.05,WSW,248,3.0,12.0,100,0.00,,,0.01,Weather View 32 v70,2013-01-12 23:38:00,
2013-01-12 18:43:00,62.0,62.0,30.05,SSE,158,5.0,12.0,100,0.00,,,0.01,Weather View 32 v70,2013-01-12 23:43:00,
2013-01-12 18:48:00,62.0,62.0,30.05,WSW,248,8.0,12.0,100,0.00,,,0.01,Weather View 32 v70,2013-01-12 23:48:00,
2013-01-12 18:53:00,62.0,62.0,30.05,SSW,202,10.0,12.0,100,0.00,,,0.01,Weather View 32 v70,2013-01-12 23:53:00,
2013-01-12 18:58:00,62.0,62.0,30.05,West,270,3.0,12.0,100,0.00,,,0.01,Weather View 32 v70,2013-01-12 23:58:00,
2013-01-12 19:03:00,62.0,62.0,30.05,WSW,248,7.0,12.0,100,0.00,,,0.01,Weather View 32 v70,2013-01-13 00:03:00,
2013-01-12 19:08:00,62.0,62.0,30.06,SW,225,6.0,12.0,100,0.00,,,0.01,Weather View 32 v70,2013-01-13 00:08:00,
2013-01-12 19:13:00,62.0,62.0,30.06,SSW,202,4.0,12.0,100,0.00,,,0.01,Weather View 32 v70,2013-01-13 00:13:00,
2013-01-12 19:18:00,62.0,62.0,30.05,ENE,68,2.0,12.0,100,0.00,,,0.01,Weather View 32 v70,2013-01-13 00:18:00,
2013-01-12 19:23:00,62.0,62.0,30.06,West,270,10.0,14.0,100,0.00,,,0.01,Weather View 32 v70,2013-01-13 00:23:00,
2013-01-12 19:28:00,62.0,62.0,30.06,SSW,202,6.0,14.0,100,0.00,,,0.01,Weather View 32 v70,2013-01-13 00:28:00,
2013-01-12 19:33:00,62.0,62.0,30.06,SSW,202,2.0,14.0,100,0.00,,,0.01,Weather View 32 v70,2013-01-13 00:33:00,
2013-01-12 19:38:00,62.0,62.0,30.06,NNE,22,3.0,14.0,100,0.00,,,0.01,Weather View 32 v70,2013-01-13 00:38:00,
2013-01-12 19:43:00,62.0,62.0,30.06,SW,225,5.0,14.0,100,0.00,,,0.01,Weather View 32 v70,2013-01-13 00:43:00,
2013-01-12 19:48:00,62.0,62.0,30.06,SSE,158,5.0,14.0,100,0.00,,,0.01,Weather View 32 v70,2013-01-13 00:48:00,
2013-01-12 19:53:00,62.0,62.0,30.05,SW,225,3.0,14.0,100,0.00,,,0.01,Weather View 32 v70,2013-01-13 00:53:00,
2013-01-12 19:58:00,62.0,62.0,30.05,SSW,202,6.0,14.0,100,0.00,,,0.01,Weather View 32 v70,2013-01-13 00:58:00,
2013-01-12 20:03:00,62.0,62.0,30.05,SSW,202,6.0,14.0,100,0.00,,,0.01,Weather View 32 v70,2013-01-13 01:03:00,
2013-01-12 20:08:00,62.0,62.0,30.05,WSW,248,4.0,14.0,100,0.00,,,0.01,Weather View 32 v70,2013-01-13 01:08:00,
2013-01-12 20:13:00,62.0,62.0,30.05,SW,225,7.0,14.0,100,0.00,,,0.01,Weather View 32 v70,2013-01-13 01:13:00,
2013-01-12 20:18:00,61.0,61.0,30.05,SW,225,6.0,14.0,100,0.00,,,0.01,Weather View 32 v70,2013-01-13 01:18:00,
2013-01-12 20:23:00,61.0,61.0,30.05,SSW,202,4.0,14.0,100,0.00,,,0.01,Weather View 32 v70,2013-01-13 01:23:00,
2013-01-12 20:28:00,61.0,61.0,30.05,WSW,248,8.0,13.0,100,0.00,,,0.01,Weather View 32 v70,2013-01-13 01:28:00,
2013-01-12 20:33:00,61.0,61.0,30.05,SW,225,3.0,13.0,100,0.00,,,0.01,Weather View 32 v70,2013-01-13 01:33:00,
2013-01-12 20:38:00,61.0,61.0,30.05,SSW,202,2.0,13.0,100,0.00,,,0.01,Weather View 32 v70,2013-01-13 01:38:00,
2013-01-12 20:43:00,61.0,61.0,30.05,SSW,202,5.0,13.0,100,1.02,,,0.01,Weather View 32 v70,2013-01-13 01:43:00,
2013-01-12 20:48:00,61.0,61.0,30.05,SSW,202,3.0,13.0,100,0.00,,,0.01,Weather View 32 v70,2013-01-13 01:48:00,
2013-01-12 20:53:00,61.0,61.0,30.05,West,270,4.0,13.0,100,0.00,,,0.01,Weather View 32 v70,2013-01-13 01:53:00,
2013-01-12 20:58:00,61.0,61.0,30.05,SSW,202,5.0,13.0,100,0.00,,,0.01,Weather View 32 v70,2013-01-13 01:58:00,
2013-01-12 21:03:00,61.0,61.0,30.05,ENE,68,4.0,13.0,100,0.00,,,0.01,Weather View 32 v70,2013-01-13 02:03:00,
2013-01-12 21:08:00,61.0,61.0,30.05,SSW,202,3.0,14.0,100,0.00,,,0.01,Weather View 32 v70,2013-01-13 02:08:00,
2013-01-12 21:13:00,61.0,61.0,30.05,WNW,292,2.0,14.0,100,0.00,,,0.01,Weather View 32 v70,2013-01-13 02:13:00,
2013-01-12 21:18:00,61.0,61.0,30.04,SE,135,5.0,14.0,100,0.00,,,0.01,Weather View 32 v70,2013-01-13 02:18:00,
2013-01-12 21:23:00,61.0,61.0,30.04,NNE,22,3.0,14.0,100,0.00,,,0.01,Weather View 32 v70,2013-01-13 02:23:00,
2013-01-12 21:28:00,61.0,61.0,30.05,SW,225,4.0,14.0,100,0.00,,,0.01,Weather View 32 v70,2013-01-13 02:28:00,
2013-01-12 21:33:00,61.0,61.0,30.05,WNW,292,3.0,14.0,100,0.00,,,0.01,Weather View 32 v70,2013-01-13 02:33:00,
2013-01-12 21:38:00,61.0,61.0,30.04,South,180,3.0,14.0,100,0.00,,,0.01,Weather View 32 v70,2013-01-13 02:38:00,
2013-01-12 21:43:00,61.0,61.0,30.04,SSW,202,0.0,14.0,100,0.00,,,0.01,Weather View 32 v70,2013-01-13 02:43:00,
2013-01-12 21:48:00,61.0,61.0,30.04,ESE,112,1.0,14.0,100,0.00,,,0.01,Weather View 32 v70,2013-01-13 02:48:00,
2013-01-12 21:50:00,61.0,61.0,30.04,WSW,248,3.0,14.0,100,0.00,,,0.01,Weather View 32 v70,2013-01-13 02:50:00,
2013-01-12 21:54:00,61.0,61.0,30.04,West,270,4.0,14.0,100,0.00,,,0.01,Weather View 32 v70,2013-01-13 02:54:00,
2013-01-12 22:00:00,61.0,61.0,30.04,WSW,248,6.0,14.0,100,0.00,,,0.01,Weather View 32 v70,2013-01-13 03:00:00,
2013-01-12 22:05:00,61.0,61.0,30.04,SW,225,3.0,10.0,100,0.00,,,0.01,Weather View 32 v70,2013-01-13 03:05:00,
2013-01-12 22:10:00,61.0,61.0,30.04,SSW,202,2.0,11.0,100,0.00,,,0.01,Weather View 32 v70,2013-01-13 03:10:00,
2013-01-12 22:15:00,61.0,61.0,30.04,WSW,248,3.0,11.0,100,0.00,,,0.01,Weather View 32 v70,2013-01-13 03:15:00,
2013-01-12 22:20:00,61.0,61.0,30.04,West,270,3.0,11.0,100,0.00,,,0.01,Weather View 32 v70,2013-01-13 03:20:00,
2013-01-12 22:25:00,61.0,61.0,30.04,WNW,292,3.0,11.0,100,0.00,,,0.01,Weather View 32 v70,2013-01-13 03:25:00,
2013-01-12 22:30:00,61.0,61.0,30.03,South,180,1.0,11.0,100,0.00,,,0.01,Weather View 32 v70,2013-01-13 03:30:00,
2013-01-12 22:35:00,61.0,61.0,30.04,SSW,202,3.0,11.0,100,0.00,,,0.01,Weather View 32 v70,2013-01-13 03:35:00,
2013-01-12 22:40:00,61.0,61.0,30.04,West,270,1.0,11.0,100,0.00,,,0.01,Weather View 32 v70,2013-01-13 03:40:00,
2013-01-12 22:45:00,61.0,61.0,30.04,SSW,202,2.0,11.0,100,0.00,,,0.01,Weather View 32 v70,2013-01-13 03:45:00,
2013-01-12 22:50:00,60.0,60.0,30.04,SSW,202,1.0,11.0,100,0.00,,,0.01,Weather View 32 v70,2013-01-13 03:50:00,
2013-01-12 22:55:00,61.0,61.0,30.03,West,270,2.0,11.0,100,0.00,,,0.01,Weather View 32 v70,2013-01-13 03:55:00,
2013-01-12 23:00:00,61.0,61.0,30.03,South,180,3.0,11.0,100,0.00,,,0.01,Weather View 32 v70,2013-01-13 04:00:00,
2013-01-12 23:05:00,61.0,61.0,30.04,West,270,1.0,11.0,100,0.00,,,0.01,Weather View 32 v70,2013-01-13 04:05:00,
2013-01-12 23:10:00,61.0,61.0,30.04,ESE,112,1.0,9.0,100,0.00,,,0.01,Weather View 32 v70,2013-01-13 04:10:00,
2013-01-12 23:15:00,61.0,61.0,30.04,NNW,338,0.0,9.0,100,0.00,,,0.01,Weather View 32 v70,2013-01-13 04:15:00,
2013-01-12 23:20:00,60.0,60.0,30.04,South,180,0.0,9.0,100,0.00,,,0.01,Weather View 32 v70,2013-01-13 04:20:00,
2013-01-12 23:25:00,60.0,60.0,30.04,SSE,158,3.0,9.0,100,0.00,,,0.01,Weather View 32 v70,2013-01-13 04:25:00,
2013-01-12 23:30:00,60.0,60.0,30.04,South,180,2.0,9.0,100,0.00,,,0.01,Weather View 32 v70,2013-01-13 04:30:00,
2013-01-12 23:35:00,60.0,60.0,30.03,South,180,3.0,9.0,100,0.00,,,0.01,Weather View 32 v70,2013-01-13 04:35:00,
2013-01-12 23:40:00,60.0,60.0,30.03,SW,225,3.0,9.0,100,0.00,,,0.01,Weather View 32 v70,2013-01-13 04:40:00,
2013-01-12 23:45:00,60.0,60.0,30.03,South,180,3.0,9.0,100,0.00,,,0.01,Weather View 32 v70,2013-01-13 04:45:00,
2013-01-12 23:50:00,60.0,60.0,30.03,West,270,0.0,9.0,100,0.00,,,0.01,Weather View 32 v70,2013-01-13 04:50:00,
2013-01-12 23:55:00,60.0,60.0,30.03,SSW,202,4.0,9.0,100,0.00,,,0.01,Weather View 32 v70,2013-01-13 04:55:00,